Location: Prairie State College
(41.5244°N, 87.6382°W)
Time: 13:22:39
(UTC-05:00)

MSX - Visible Passes

Search period start: 28 July 2016 00:00
Search period end: 07 August 2016 00:00
Orbit: 898 x 903 km, 98.7° (Epoch: 04 May)

Date Brightness Start Highest point End Pass type
(mag) Time Alt. Az. Time Alt. Az. Time Alt. Az.
31 Jul 6.6 20:32:23 10° SW 20:35:41 15° W 20:38:59 10° NW visible
01 Aug 6.6 20:35:27 10° WSW 20:38:30 14° W 20:41:33 10° WNW visible
02 Aug 6.7 20:38:34 10° WSW 20:41:19 14° W 20:44:05 10° WNW visible
03 Aug 6.8 20:41:43 10° WSW 20:44:08 13° W 20:46:34 10° WNW visible
04 Aug 6.8 20:44:56 10° WSW 20:46:58 12° W 20:49:00 10° WNW visible
05 Aug 7.0 20:48:18 10° WSW 20:49:48 11° W 20:51:18 10° WNW visible
06 Aug 7.1 20:52:03 10° W 20:52:37 10° W 20:53:11 10° W visible
